Beaver Bay, MN

4:42 PM CDT on July 28, 2016 (GMT -0500)
Silver Bay Municipal

Weather History for KBFW - January, 2014

Change the Weather History Date:

Wednesday, January 15, 2014

  Actual Average Record
Temperature  
Mean Temperature 2 °F -  
Max Temperature 12 °F 17 °F 35 °F (2006)
Min Temperature -7 °F 0 °F -34 °F (2005)
Degree Days  
Heating Degree Days 62    
Moisture  
Dew Point 0 °F    
Average Humidity 85    
Maximum Humidity 100    
Minimum Humidity 67    
Precipitation  
Precipitation 0.02 in - - ()
Sea Level Pressure  
Sea Level Pressure 29.73 in    
Wind  
Wind Speed 4 mph (SSW)    
Max Wind Speed 17 mph    
Max Gust Speed 24 mph    
Visibility 8 miles    
Events Snow    
Averages and records for this station are not official NWS values.
T = Trace of Precipitation, MM = Missing Value Source: NWS Daily Summary

Daily Weather History Graph

Daily Weather History Graph

Search for Another Location

Airport or City:

Trip Planner

Search our weather history database for the weather conditions in past years. The results will help you decide how hot, cold, wet, or windy it might be!

Date:

Astronomy

Jan. 15, 2014 Rise Set
Actual Time 7:47 AM CST 4:42 PM CST
Civil Twilight 7:13 AM CST 5:17 PM CST
Nautical Twilight 6:35 AM CST 5:55 PM CST
Astronomical Twilight 5:58 AM CST 6:31 PM CST
Moon 4:45 PM CST (1/15) 7:00 AM CST (1/15)
Length of Visible Light 10h 03m
Length of Day
8h 55m
Full, 100% of the Moon is Illuminated
Jan 15
Full
Jan 15
Full
Jan 23
Last Quarter
Jan 30
New
Feb 6
First Quarter

Hourly Weather History & Observations

Time (CST) Temp. Windchill Dew Point Humidity Pressure Visibility Wind Dir Wind Speed Gust Speed Precip Events Conditions
12:13 AM 3.2 °F - -0.4 °F 85% 29.97 in 10.0 mi Calm Calm - N/A   Clear
12:33 AM 3.2 °F - -0.4 °F 85% 29.98 in 10.0 mi Calm Calm - N/A   Clear
12:53 AM 3.2 °F - -0.4 °F 85% 29.98 in 10.0 mi Calm Calm - N/A   Clear
1:13 AM 3.2 °F - -0.4 °F 85% 29.98 in 10.0 mi Calm Calm - N/A   Clear
1:33 AM 3.2 °F - -0.4 °F 85% 29.98 in 10.0 mi Calm Calm - N/A   Clear
1:53 AM 3.2 °F - -0.4 °F 85% 29.98 in 10.0 mi Calm Calm - N/A   Clear
2:13 AM 3.2 °F -7.8 °F -0.4 °F 85% 29.98 in 10.0 mi NW 5.8 mph - N/A   Clear
2:33 AM 3.2 °F - -0.4 °F 85% 29.99 in 10.0 mi Calm Calm - N/A   Clear
2:53 AM 3.2 °F - -0.4 °F 85% 29.99 in 10.0 mi Calm Calm - N/A   Clear
3:13 AM 3.2 °F -6.2 °F -2.2 °F 78% 29.99 in 10.0 mi NW 4.6 mph - N/A   Clear
3:33 AM 3.2 °F - -2.2 °F 78% 29.99 in 10.0 mi Calm Calm - N/A   Clear
3:53 AM 1.4 °F -6.2 °F -2.2 °F 85% 29.99 in 10.0 mi NW 3.5 mph - N/A   Clear
4:13 AM 1.4 °F - -2.2 °F 85% 29.98 in 10.0 mi Calm Calm - N/A   Clear
4:33 AM 1.4 °F - -2.2 °F 85% 29.99 in 10.0 mi Calm Calm - N/A   Clear
4:53 AM -0.4 °F - -4.0 °F 85% 29.99 in 10.0 mi Calm Calm - N/A   Clear
5:13 AM -2.2 °F - -5.8 °F 85% 29.99 in 10.0 mi Calm Calm - N/A   Clear
5:33 AM -4.0 °F - -7.6 °F 85% 29.99 in 10.0 mi Calm Calm - N/A   Clear
5:53 AM -5.8 °F - -7.6 °F 92% 29.99 in 10.0 mi Calm Calm - N/A   Clear
6:13 AM -5.8 °F - -7.6 °F 92% 29.98 in 10.0 mi Calm Calm - N/A   Clear
6:33 AM -5.8 °F - -9.4 °F 84% 29.98 in 10.0 mi Calm Calm - N/A   Clear
6:53 AM -7.6 °F - -9.4 °F 92% 29.97 in 10.0 mi Calm Calm - N/A   Clear
7:13 AM -5.8 °F - -9.4 °F 84% 29.97 in 10.0 mi Calm Calm - N/A   Clear
7:33 AM -7.6 °F - -9.4 °F 92% 29.96 in 10.0 mi Calm Calm - N/A   Clear
7:53 AM -7.6 °F - -9.4 °F 92% 29.96 in 10.0 mi Calm Calm - N/A   Clear
8:14 AM -5.8 °F -14.5 °F -9.4 °F 84% 29.96 in 10.0 mi WNW 3.5 mph - N/A   Clear
8:33 AM -5.8 °F -14.5 °F -7.6 °F 92% 29.95 in 10.0 mi WNW 3.5 mph - N/A   Clear
8:53 AM -2.2 °F - -7.6 °F 78% 29.94 in 10.0 mi Calm Calm - N/A   Clear
9:13 AM -2.2 °F - -5.8 °F 85% 29.94 in 10.0 mi Calm Calm - N/A   Clear
9:33 AM -0.4 °F -8.3 °F -5.8 °F 78% 29.93 in 10.0 mi West 3.5 mph - N/A   Clear
9:53 AM 1.4 °F -9.9 °F -4.0 °F 78% 29.92 in 10.0 mi West 5.8 mph - N/A   Clear
10:13 AM 3.2 °F - -4.0 °F 72% 29.90 in 10.0 mi Calm Calm - N/A   Clear
10:33 AM 3.2 °F -4.2 °F -4.0 °F 72% 29.89 in 10.0 mi WSW 3.5 mph - N/A   Clear
10:53 AM 3.2 °F -6.2 °F -4.0 °F 72% 29.87 in 10.0 mi SSW 4.6 mph - N/A   Clear
11:13 AM 5.0 °F -8.1 °F -2.2 °F 72% 29.86 in 10.0 mi SSW 8.1 mph - N/A   Clear
11:33 AM 5.0 °F -6.9 °F -2.2 °F 72% 29.84 in 10.0 mi SSW 6.9 mph - N/A   Clear
11:53 AM 6.8 °F -8.6 °F -2.2 °F 67% 29.82 in 10.0 mi South 11.5 mph - N/A   Clear
12:13 PM 6.8 °F -3.5 °F -2.2 °F 67% 29.80 in 10.0 mi SW 5.8 mph - N/A   Clear
12:33 PM 6.8 °F -3.5 °F -0.4 °F 72% 29.79 in 10.0 mi SSW 5.8 mph - N/A   Clear
12:53 PM 6.8 °F -4.8 °F -0.4 °F 72% 29.79 in 10.0 mi SW 6.9 mph - N/A   Clear
1:13 PM 6.8 °F -5.9 °F -0.4 °F 72% 29.76 in 10.0 mi SW 8.1 mph - N/A   Clear
1:33 PM 6.8 °F -7.8 °F -0.4 °F 72% 29.73 in 10.0 mi South 10.4 mph - N/A   Clear
1:53 PM 6.8 °F -5.9 °F -0.4 °F 72% 29.73 in 10.0 mi South 8.1 mph - N/A   Clear
2:13 PM 6.8 °F -5.9 °F -0.4 °F 72% 29.71 in 10.0 mi SSW 8.1 mph - N/A   Clear
2:33 PM 6.8 °F -6.9 °F 1.4 °F 79% 29.69 in 10.0 mi SSW 9.2 mph - N/A   Scattered Clouds
2:53 PM 6.8 °F -8.6 °F 3.2 °F 85% 29.68 in 10.0 mi SSW 11.5 mph 18.4 mph N/A   Scattered Clouds
3:13 PM 6.8 °F -10.0 °F 3.2 °F 85% 29.67 in 10.0 mi SSW 13.8 mph - N/A   Scattered Clouds
3:33 PM 6.8 °F -7.8 °F 3.2 °F 85% 29.63 in 10.0 mi South 10.4 mph - N/A   Scattered Clouds
3:53 PM 8.6 °F -7.7 °F 3.2 °F 79% 29.61 in 10.0 mi South 13.8 mph 19.6 mph N/A   Mostly Cloudy
4:13 PM 6.8 °F -11.3 °F 3.2 °F 85% 29.59 in 10.0 mi South 16.1 mph 21.9 mph N/A   Mostly Cloudy
4:33 PM 8.6 °F -7.0 °F 3.2 °F 79% 29.58 in 10.0 mi South 12.7 mph 16.1 mph N/A   Scattered Clouds
4:53 PM 8.6 °F -8.3 °F 3.2 °F 79% 29.58 in 10.0 mi South 15.0 mph 21.9 mph N/A   Clear
5:13 PM 6.8 °F -7.8 °F 3.2 °F 85% 29.54 in 1.5 mi South 10.4 mph 18.4 mph N/A Snow Light Snow
5:33 PM 6.8 °F -10.0 °F 5.0 °F 92% 29.53 in 0.5 mi South 13.8 mph 17.3 mph N/A Snow Snow
5:53 PM 6.8 °F -7.8 °F 5.0 °F 92% 29.51 in 0.5 mi South 10.4 mph 17.3 mph N/A Snow Snow
6:13 PM 8.6 °F -4.7 °F 6.8 °F 92% 29.48 in 0.5 mi South 9.2 mph - N/A Snow Light Snow
6:33 PM 8.6 °F -7.7 °F 6.8 °F 92% 29.46 in 1.0 mi South 13.8 mph 20.7 mph N/A Snow Light Snow
6:53 PM 8.6 °F -9.5 °F 6.8 °F 92% 29.46 in 0.8 mi South 17.3 mph 24.2 mph N/A Snow Light Snow
7:13 PM 8.6 °F -8.9 °F 6.8 °F 92% 29.44 in 0.8 mi South 16.1 mph 23.0 mph N/A Snow Light Snow
7:33 PM 8.6 °F -8.9 °F 6.8 °F 92% 29.42 in 1.0 mi South 16.1 mph 21.9 mph N/A Snow Light Snow
7:53 PM 8.6 °F -7.0 °F 6.8 °F 92% 29.40 in 1.5 mi South 12.7 mph 20.7 mph N/A Snow Light Snow
8:13 PM 8.6 °F -7.0 °F 6.8 °F 92% 29.38 in 1.8 mi South 12.7 mph 20.7 mph N/A Snow Light Snow
8:33 PM 8.6 °F -6.3 °F 6.8 °F 92% 29.37 in 0.5 mi South 11.5 mph 19.6 mph N/A Snow Snow
8:53 PM 8.6 °F -5.5 °F 8.6 °F 100% 29.35 in 0.8 mi South 10.4 mph 17.3 mph N/A Snow Light Snow
9:13 PM 10.4 °F -5.4 °F 8.6 °F 92% 29.33 in 1.0 mi South 13.8 mph 18.4 mph N/A Snow Light Snow
9:33 PM 10.4 °F -5.4 °F 8.6 °F 92% 29.32 in 0.8 mi SSW 13.8 mph 24.2 mph N/A Snow Light Snow
9:53 PM 10.4 °F -1.5 °F 8.6 °F 92% 29.30 in 0.5 mi SSW 8.1 mph - N/A Snow Snow
10:13 PM 10.4 °F -0.4 °F 8.6 °F 92% 29.28 in 0.2 mi SSW 6.9 mph - 0.01 in Snow Snow
10:33 PM 10.4 °F 0.8 °F 10.4 °F 100% 29.27 in 0.8 mi SSW 5.8 mph - 0.01 in Snow Light Snow
10:53 PM 10.4 °F 2.2 °F 10.4 °F 100% 29.26 in 1.5 mi SSW 4.6 mph - N/A Snow Light Snow
11:13 PM 10.4 °F - 10.4 °F 100% 29.25 in 1.5 mi Calm Calm - 0.01 in Snow Light Snow
11:33 PM 12.2 °F - 10.4 °F 92% 29.25 in 2.5 mi Calm Calm - 0.01 in Snow Light Snow
11:53 PM 12.2 °F 4.3 °F 10.4 °F 92% 29.24 in 7.0 mi SSW 4.6 mph - N/A   Clear